| time (UTC) | temp C | wind direction | speed KPH | gust KPH | rain 1hr cm | rain 24hr cm | rain mn cm | humidity % | barometer mb |
| 20260506135842 | 14 | 261 | 3.2 | 4.8 | 0.00 | 0.08 | 0.08 | 93 | 1038.7 |
| 20260506135339 | 15 | 243 | 1.6 | 6.4 | 0.00 | 0.08 | 0.08 | 93 | 1038.8 |
| 20260506134835 | 15 | 260 | 3.2 | 9.7 | 0.00 | 0.08 | 0.08 | 92 | 1038.5 |
| 20260506134331 | 15 | 261 | 0.0 | 1.6 | 0.00 | 0.08 | 0.08 | 92 | 1038.8 |
| 20260506133829 | 15 | 222 | 3.2 | 3.2 | 0.00 | 0.08 | 0.08 | 91 | 1039.0 |
| 20260506133325 | 15 | 228 | 4.8 | 4.8 | 0.00 | 0.08 | 0.08 | 91 | 1039.0 |
| 20260506132822 | 15 | 230 | 3.2 | 4.8 | 0.00 | 0.08 | 0.08 | 90 | 1039.0 |
| 20260506132319 | 15 | 249 | 1.6 | 4.8 | 0.00 | 0.08 | 0.08 | 89 | 1039.0 |
| 20260506131817 | 15 | 211 | 6.4 | 9.7 | 0.00 | 0.08 | 0.08 | 88 | 1039.1 |
| 20260506131313 | 15 | 256 | 3.2 | 6.4 | 0.23 | 0.08 | 0.08 | 87 | 1039.2 |
| 20260506130810 | 15 | 226 | 6.4 | 14.5 | 0.23 | 0.08 | 0.08 | 86 | 1039.2 |
| 20260506130307 | 15 | 237 | 4.8 | 12.9 | 0.00 | 0.05 | 0.05 | 86 | 1039.3 |
| 20260506125805 | 15 | 229 | 3.2 | 12.9 | 0.13 | 0.05 | 0.05 | 84 | 1039.3 |
| 20260506125305 | 15 | 187 | 9.7 | 14.5 | 0.13 | 0.05 | 0.05 | 83 | 1039.0 |
| 20260506124801 | 16 | 203 | 6.4 | 14.5 | 0.00 | 0.03 | 0.03 | 82 | 1038.9 |
| 20260506124258 | 16 | 216 | 4.8 | 16.1 | 0.13 | 0.03 | 0.03 | 79 | 1038.7 |
| 20260506123755 | 16 | 70 | 4.8 | 12.9 | 0.13 | 0.03 | 0.03 | 78 | 1038.5 |
| 20260506123254 | 16 | 222 | 6.4 | 11.3 | 0.00 | 0.00 | 0.00 | 76 | 1038.3 |
| 20260506122750 | 16 | 249 | 3.2 | 9.7 | 0.00 | 0.00 | 0.00 | 74 | 1038.2 |
| 20260506122247 | 17 | 262 | 4.8 | 14.5 | 0.00 | 0.00 | 0.00 | 72 | 1038.2 |
| 20260506121745 | 17 | 199 | 3.2 | 12.9 | 0.00 | 0.00 | 0.00 | 70 | 1038.5 |
| 20260506121242 | 17 | 210 | 3.2 | 9.7 | 0.00 | 0.00 | 0.00 | 68 | 1038.5 |
| 20260506120739 | 16 | 241 | 4.8 | 9.7 | 0.00 | 0.00 | 0.00 | 67 | 1038.4 |
| 20260506120237 | 17 | 256 | 1.6 | 3.2 | 0.00 | 0.00 | 0.00 | 67 | 1038.8 |
| 20260506115735 | 16 | 239 | 3.2 | 4.8 | 0.00 | 0.00 | 0.00 | 66 | 1038.8 |
| 20260506115233 | 17 | 254 | 1.6 | 4.8 | 0.00 | 0.00 | 0.00 | 65 | 1038.6 |
| 20260506114730 | 17 | 254 | 1.6 | 4.8 | 0.00 | 0.00 | 0.00 | 65 | 1038.5 |
| 20260506114227 | 17 | 254 | 1.6 | 3.2 | 0.00 | 0.00 | 0.00 | 64 | 1038.4 |
| 20260506113726 | 17 | 245 | 1.6 | 6.4 | 0.00 | 0.00 | 0.00 | 64 | 1038.6 |
| 20260506113223 | 17 | 250 | 1.6 | 6.4 | 0.00 | 0.00 | 0.00 | 64 | 1038.6 |
| 20260506112719 | 17 | 240 | 1.6 | 3.2 | 0.00 | 0.00 | 0.00 | 65 | 1038.5 |
| 20260506112217 | 17 | 255 | 3.2 | 4.8 | 0.00 | 0.00 | 0.00 | 64 | 1038.6 |
| 20260506111714 | 17 | 254 | 1.6 | 3.2 | 0.00 | 0.00 | 0.00 | 64 | 1038.4 |
| 20260506111213 | 17 | 222 | 6.4 | 6.4 | 0.00 | 0.00 | 0.00 | 64 | 1038.4 |
| 20260506110709 | 16 | 233 | 4.8 | 4.8 | 0.00 | 0.00 | 0.00 | 63 | 1038.7 |
| 20260506110207 | 16 | 249 | 3.2 | 4.8 | 0.00 | 0.00 | 0.00 | 63 | 1038.5 |
| 20260506105703 | 17 | 249 | 1.6 | 3.2 | 0.00 | 0.00 | 0.00 | 63 | 1038.4 |
| 20260506105200 | 17 | 256 | 3.2 | 11.3 | 0.00 | 0.00 | 0.00 | 61 | 1038.3 |
| 20260506104658 | 17 | 260 | 0.0 | 3.2 | 0.00 | 0.00 | 0.00 | 61 | 1038.2 |
| 20260506104155 | 16 | 258 | 1.6 | 1.6 | 0.00 | 0.00 | 0.00 | 61 | 1038.1 |
| 20260506103652 | 17 | 265 | 1.6 | 3.2 | 0.00 | 0.00 | 0.00 | 61 | 1037.9 |
| 20260506103149 | 17 | 260 | 0.0 | 3.2 | 0.00 | 0.00 | 0.00 | 60 | 1038.0 |
| 20260506102647 | 17 | 259 | 0.0 | 3.2 | 0.00 | 0.00 | 0.00 | 60 | 1038.0 |
| 20260506102144 | 17 | 252 | 0.0 | 1.6 | 0.00 | 0.00 | 0.00 | 59 | 1038.1 |
| 20260506101641 | 17 | 257 | 1.6 | 3.2 | 0.00 | 0.00 | 0.00 | 59 | 1037.9 |
| 20260506101138 | 17 | 246 | 0.0 | 1.6 | 0.00 | 0.00 | 0.00 | 58 | 1038.1 |
| 20260506100637 | 17 | 255 | 1.6 | 1.6 | 0.00 | 0.00 | 0.00 | 57 | 1038.0 |
| 20260506100134 | 17 | 256 | 1.6 | 3.2 | 0.00 | 0.00 | 0.00 | 57 | 1038.1 |
| 20260506095633 | 17 | 242 | 3.2 | 4.8 | 0.00 | 0.00 | 0.00 | 57 | 1038.0 |
| 20260506095129 | 17 | 242 | 1.6 | 4.8 | 0.00 | 0.00 | 0.00 | 57 | 1038.2 |
| 20260506094626 | 17 | 250 | 3.2 | 3.2 | 0.00 | 0.00 | 0.00 | 56 | 1038.3 |
| 20260506094124 | 17 | 249 | 0.0 | 0.0 | 0.00 | 0.00 | 0.00 | 56 | 1038.2 |
| 20260506093623 | 17 | 263 | 0.0 | 0.0 | 0.00 | 0.00 | 0.00 | 56 | 1038.1 |
| 20260506093119 | 17 | 260 | 0.0 | 0.0 | 0.00 | 0.00 | 0.00 | 55 | 1037.9 |
| 20260506092617 | 17 | 262 | 0.0 | 0.0 | 0.00 | 0.00 | 0.00 | 55 | 1038.1 |
| 20260506092114 | 17 | 260 | 0.0 | 0.0 | 0.00 | 0.00 | 0.00 | 55 | 1037.9 |
| 20260506091612 | 16 | 264 | 0.0 | 0.0 | 0.00 | 0.00 | 0.00 | 56 | 1038.1 |
| 20260506091109 | 17 | 268 | 0.0 | 0.0 | 0.00 | 0.00 | 0.00 | 56 | 1038.0 |
| 20260506090607 | 16 | 264 | 0.0 | 0.0 | 0.00 | 0.00 | 0.00 | 57 | 1038.2 |
| 20260506085600 | 16 | 283 | 0.0 | 0.0 | 0.00 | 0.00 | 0.00 | 60 | 1038.4 |
| 20260506085056 | 16 | 282 | 0.0 | 0.0 | 0.00 | 0.00 | 0.00 | 59 | 1038.2 |
| 20260506084553 | 16 | 273 | 0.0 | 0.0 | 0.00 | 0.00 | 0.00 | 58 | 1038.3 |
| 20260506084049 | 16 | 262 | 0.0 | 0.0 | 0.00 | 0.00 | 0.00 | 56 | 1038.4 |
| 20260506083547 | 16 | 258 | 0.0 | 0.0 | 0.00 | 0.00 | 0.00 | 56 | 1038.6 |
| 20260506083044 | 16 | 263 | 0.0 | 0.0 | 0.00 | 0.00 | 0.00 | 56 | 1038.5 |
| 20260506082541 | 16 | 263 | 0.0 | 0.0 | 0.00 | 0.00 | 0.00 | 55 | 1038.3 |
| 20260506082036 | 17 | 258 | 0.0 | 0.0 | 0.00 | 0.00 | 0.00 | 55 | 1038.5 |
| 20260506081535 | 17 | 249 | 0.0 | 0.0 | 0.00 | 0.00 | 0.00 | 54 | 1038.3 |
| 20260506081032 | 17 | 265 | 0.0 | 0.0 | 0.00 | 0.00 | 0.00 | 53 | 1038.3 |
| 20260506080530 | 17 | 254 | 0.0 | 0.0 | 0.00 | 0.00 | 0.00 | 53 | 1038.1 |
| 20260506073513 | 17 | 262 | 0.0 | 0.0 | 0.00 | 0.00 | 0.00 | 53 | 1038.4 |
| 20260506073010 | 17 | 262 | 0.0 | 0.0 | 0.00 | 0.00 | 0.00 | 53 | 1038.5 |
| 20260506072507 | 17 | 260 | 0.0 | 0.0 | 0.00 | 0.00 | 0.00 | 53 | 1038.5 |
| 20260506072005 | 17 | 258 | 0.0 | 0.0 | 0.00 | 0.00 | 0.00 | 52 | 1038.7 |
| 20260506071503 | 17 | 259 | 0.0 | 0.0 | 0.00 | 0.00 | 0.00 | 52 | 1038.8 |
| 20260506070959 | 17 | 262 | 0.0 | 0.0 | 0.00 | 0.00 | 0.00 | 54 | 1038.8 |
| 20260506070456 | 16 | 264 | 0.0 | 0.0 | 0.00 | 0.00 | 0.00 | 55 | 1038.6 |
| 20260506062434 | 16 | 269 | 0.0 | 0.0 | 0.00 | 0.00 | 0.00 | 58 | 1038.8 |
| 20260506061930 | 16 | 271 | 0.0 | 0.0 | 0.00 | 0.00 | 0.00 | 60 | 1038.7 |
| 20260506061426 | 16 | 271 | 0.0 | 0.0 | 0.00 | 0.00 | 0.00 | 61 | 1038.9 |
| 20260506060925 | 16 | 264 | 0.0 | 0.0 | 0.00 | 0.00 | 0.00 | 60 | 1039.0 |
| 20260506060423 | 16 | 257 | 0.0 | 1.6 | 0.00 | 0.00 | 0.00 | 59 | 1039.1 |
| 20260506051354 | 16 | 268 | 0.0 | 0.0 | 0.00 | 0.00 | 0.00 | 61 | 1039.3 |
| 20260506050851 | 16 | 268 | 0.0 | 0.0 | 0.00 | 0.00 | 0.00 | 62 | 1039.4 |
| 20260506050349 | 16 | 266 | 0.0 | 0.0 | 0.00 | 0.00 | 0.00 | 62 | 1039.5 |
| 20260506044839 | 17 | 264 | 0.0 | 0.0 | 0.00 | 0.00 | 0.00 | 59 | 1039.3 |
| 20260506044337 | 17 | 263 | 0.0 | 0.0 | 0.00 | 0.00 | 0.00 | 59 | 1039.5 |
| 20260506043834 | 17 | 264 | 0.0 | 0.0 | 0.00 | 0.00 | 0.00 | 59 | 1039.5 |
| 20260506043331 | 17 | 263 | 0.0 | 1.6 | 0.00 | 0.00 | 0.00 | 58 | 1039.6 |
| 20260506042829 | 17 | 274 | 0.0 | 0.0 | 0.00 | 0.00 | 0.00 | 59 | 1039.5 |
| 20260506042328 | 17 | 276 | 0.0 | 1.6 | 0.00 | 0.00 | 0.00 | 60 | 1039.5 |
| 20260506041827 | 17 | 283 | 1.6 | 1.6 | 0.00 | 0.00 | 0.00 | 61 | 1039.5 |
| 20260506041323 | 16 | 290 | 1.6 | 3.2 | 0.00 | 0.00 | 0.00 | 61 | 1039.5 |
| 20260506040820 | 17 | 286 | 1.6 | 3.2 | 0.00 | 0.00 | 0.00 | 61 | 1039.6 |
| 20260506040318 | 17 | 273 | 0.0 | 1.6 | 0.00 | 0.00 | 0.00 | 60 | 1039.7 |
| 20260506035814 | 17 | 280 | 0.0 | 1.6 | 0.00 | 0.08 | 0.08 | 60 | 1039.7 |
| 20260506035311 | 17 | 271 | 1.6 | 1.6 | 0.00 | 0.08 | 0.08 | 61 | 1039.6 |
| 20260506034809 | 17 | 256 | 1.6 | 1.6 | 0.00 | 0.08 | 0.08 | 61 | 1039.6 |
| 20260506034306 | 17 | 264 | 0.0 | 0.0 | 0.00 | 0.08 | 0.08 | 59 | 1039.6 |
| 20260506033802 | 17 | 269 | 0.0 | 0.0 | 0.00 | 0.08 | 0.08 | 58 | 1039.5 |
| 20260506033259 | 17 | 272 | 0.0 | 0.0 | 0.00 | 0.08 | 0.08 | 57 | 1039.5 |
| 20260506032756 | 17 | 270 | 0.0 | 0.0 | 0.00 | 0.08 | 0.08 | 57 | 1039.6 |
| 20260506032253 | 17 | 272 | 0.0 | 1.6 | 0.00 | 0.08 | 0.08 | 57 | 1039.5 |
| 20260506031750 | 17 | 273 | 1.6 | 3.2 | 0.00 | 0.08 | 0.08 | 57 | 1039.4 |
| 20260506031247 | 17 | 280 | 1.6 | 3.2 | 0.00 | 0.08 | 0.08 | 57 | 1039.5 |
| 20260506030745 | 18 | 271 | 3.2 | 3.2 | 0.00 | 0.08 | 0.08 | 57 | 1039.5 |
| 20260506030243 | 18 | 283 | 3.2 | 3.2 | 0.00 | 0.08 | 0.08 | 55 | 1039.5 |
| 20260506025739 | 18 | 274 | 1.6 | 1.6 | 0.00 | 0.08 | 0.08 | 54 | 1039.4 |
| 20260506025235 | 18 | 271 | 1.6 | 1.6 | 0.00 | 0.08 | 0.08 | 54 | 1039.4 |
| 20260506024732 | 18 | 276 | 1.6 | 1.6 | 0.00 | 0.08 | 0.08 | 54 | 1039.3 |
| 20260506024228 | 19 | 275 | 1.6 | 1.6 | 0.00 | 0.08 | 0.08 | 54 | 1039.5 |
| 20260506023720 | 19 | 267 | 0.0 | 0.0 | 0.00 | 0.08 | 0.08 | 53 | 1039.5 |
| 20260506023217 | 19 | 269 | 1.6 | 1.6 | 0.00 | 0.08 | 0.08 | 52 | 1039.5 |
| 20260506022714 | 20 | 268 | 0.0 | 1.6 | 0.00 | 0.08 | 0.08 | 51 | 1039.5 |
| 20260506022212 | 20 | 263 | 1.6 | 1.6 | 0.00 | 0.08 | 0.08 | 51 | 1039.5 |
| 20260506021709 | 20 | 260 | 0.0 | 1.6 | 0.00 | 0.08 | 0.08 | 51 | 1039.7 |
| 20260506021206 | 20 | 254 | 1.6 | 1.6 | 0.00 | 0.08 | 0.08 | 50 | 1039.5 |
| 20260506020703 | 20 | 245 | 3.2 | 3.2 | 0.00 | 0.08 | 0.08 | 49 | 1039.5 |
| 20260506020201 | 20 | 250 | 3.2 | 4.8 | 0.00 | 0.08 | 0.08 | 49 | 1039.7 |
| 20260506015658 | 20 | 260 | 1.6 | 3.2 | 0.00 | 0.08 | 0.08 | 49 | 1039.5 |
| 20260506015156 | 20 | 260 | 3.2 | 4.8 | 0.00 | 0.08 | 0.08 | 48 | 1039.4 |
| 20260506014653 | 20 | 261 | 1.6 | 4.8 | 0.00 | 0.08 | 0.08 | 48 | 1039.4 |
| 20260506014148 | 20 | 248 | 3.2 | 3.2 | 0.00 | 0.08 | 0.08 | 48 | 1039.3 |
| 20260506013646 | 20 | 262 | 1.6 | 3.2 | 0.00 | 0.08 | 0.08 | 49 | 1039.5 |
| 20260506013143 | 20 | 266 | 0.0 | 3.2 | 0.00 | 0.08 | 0.08 | 49 | 1039.3 |
| 20260506012639 | 20 | 264 | 1.6 | 1.6 | 0.00 | 0.08 | 0.08 | 49 | 1039.2 |
| 20260506012135 | 21 | 264 | 1.6 | 1.6 | 0.00 | 0.08 | 0.08 | 48 | 1039.1 |
| 20260506011628 | 21 | 243 | 3.2 | 3.2 | 0.00 | 0.08 | 0.08 | 46 | 1038.9 |
| 20260506011124 | 21 | 244 | 1.6 | 3.2 | 0.00 | 0.08 | 0.08 | 46 | 1038.9 |
| 20260506010623 | 21 | 239 | 0.0 | 3.2 | 0.00 | 0.08 | 0.08 | 47 | 1038.9 |
| 20260506010119 | 21 | 254 | 0.0 | 1.6 | 0.00 | 0.08 | 0.08 | 46 | 1038.7 |
| 20260506005616 | 21 | 260 | 0.0 | 1.6 | 0.00 | 0.08 | 0.08 | 45 | 1038.8 |
| 20260506005113 | 21 | 254 | 1.6 | 1.6 | 0.00 | 0.08 | 0.08 | 44 | 1038.7 |
| 20260506004610 | 22 | 257 | 0.0 | 3.2 | 0.00 | 0.08 | 0.08 | 44 | 1038.7 |
| 20260506004106 | 22 | 225 | 6.4 | 11.3 | 0.00 | 0.08 | 0.08 | 43 | 1038.9 |
| 20260506003602 | 22 | 245 | 1.6 | 4.8 | 0.00 | 0.08 | 0.08 | 43 | 1038.7 |
| 20260506003059 | 22 | 256 | 0.0 | 3.2 | 0.00 | 0.08 | 0.08 | 43 | 1038.7 |
| 20260506002554 | 22 | 228 | 3.2 | 4.8 | 0.00 | 0.08 | 0.08 | 43 | 1038.7 |
| 20260506002051 | 22 | 255 | 1.6 | 3.2 | 0.00 | 0.08 | 0.08 | 43 | 1038.6 |
| 20260506001547 | 22 | 259 | 1.6 | 3.2 | 0.00 | 0.08 | 0.08 | 43 | 1038.6 |
| 20260506001045 | 22 | 249 | 3.2 | 3.2 | 0.00 | 0.08 | 0.08 | 43 | 1038.6 |
| 20260506000542 | 22 | 258 | 1.6 | 4.8 | 0.00 | 0.08 | 0.08 | 43 | 1038.6 |
| 20260506000039 | 22 | 247 | 1.6 | 3.2 | 0.00 | 0.08 | 0.08 | 44 | 1038.5 |
| 20260505235537 | 22 | 245 | 1.6 | 3.2 | 0.00 | 0.08 | 0.08 | 44 | 1038.4 |
| 20260505235034 | 22 | 241 | 1.6 | 4.8 | 0.00 | 0.08 | 0.08 | 43 | 1038.3 |
| 20260505234531 | 22 | 249 | 3.2 | 9.7 | 0.00 | 0.08 | 0.08 | 42 | 1038.3 |
| 20260505234027 | 22 | 224 | 4.8 | 4.8 | 0.00 | 0.08 | 0.08 | 43 | 1038.5 |
| 20260505233525 | 22 | 258 | 3.2 | 9.7 | 0.00 | 0.08 | 0.08 | 43 | 1038.1 |
| 20260505233022 | 22 | 258 | 3.2 | 9.7 | 0.00 | 0.08 | 0.08 | 43 | 1038.3 |
| 20260505232520 | 22 | 209 | 3.2 | 4.8 | 0.00 | 0.08 | 0.08 | 44 | 1038.3 |
| 20260505232018 | 22 | 241 | 3.2 | 4.8 | 0.00 | 0.08 | 0.08 | 44 | 1038.3 |
| 20260505231514 | 22 | 242 | 4.8 | 6.4 | 0.00 | 0.08 | 0.08 | 44 | 1038.3 |
| 20260505231013 | 22 | 234 | 4.8 | 9.7 | 0.00 | 0.08 | 0.08 | 45 | 1038.2 |
| 20260505230510 | 22 | 252 | 6.4 | 6.4 | 0.00 | 0.08 | 0.08 | 46 | 1038.3 |
| 20260505230007 | 22 | 263 | 1.6 | 4.8 | 0.00 | 0.08 | 0.08 | 47 | 1038.1 |
| 20260505225504 | 22 | 258 | 4.8 | 6.4 | 0.00 | 0.08 | 0.08 | 46 | 1037.8 |
| 20260505224959 | 22 | 241 | 3.2 | 6.4 | 0.00 | 0.08 | 0.08 | 47 | 1038.4 |
| 20260505224456 | 22 | 263 | 3.2 | 4.8 | 0.00 | 0.08 | 0.08 | 47 | 1038.0 |
| 20260505223954 | 22 | 262 | 3.2 | 4.8 | 0.00 | 0.08 | 0.08 | 47 | 1038.0 |
| 20260505223450 | 22 | 259 | 3.2 | 4.8 | 0.00 | 0.08 | 0.08 | 47 | 1037.9 |
| 20260505222947 | 22 | 246 | 4.8 | 4.8 | 0.00 | 0.08 | 0.08 | 45 | 1037.5 |
| 20260505222443 | 22 | 250 | 3.2 | 6.4 | 0.00 | 0.08 | 0.08 | 46 | 1037.9 |
| 20260505221939 | 22 | 258 | 3.2 | 3.2 | 0.00 | 0.08 | 0.08 | 46 | 1037.9 |
| 20260505221437 | 22 | 252 | 1.6 | 4.8 | 0.00 | 0.08 | 0.08 | 46 | 1038.0 |
| 20260505220933 | 22 | 249 | 1.6 | 3.2 | 0.00 | 0.08 | 0.08 | 46 | 1038.1 |
| 20260505220430 | 22 | 225 | 4.8 | 4.8 | 0.00 | 0.08 | 0.08 | 45 | 1037.8 |
| 20260505215928 | 22 | 224 | 6.4 | 9.7 | 0.00 | 0.08 | 0.08 | 45 | 1038.0 |
| 20260505215426 | 22 | 225 | 6.4 | 11.3 | 0.00 | 0.08 | 0.08 | 45 | 1037.9 |
| 20260505214924 | 22 | 208 | 6.4 | 9.7 | 0.00 | 0.08 | 0.08 | 45 | 1037.9 |
| 20260505214421 | 22 | 231 | 8.0 | 9.7 | 0.00 | 0.08 | 0.08 | 44 | 1037.9 |
| 20260505213918 | 22 | 228 | 6.4 | 9.7 | 0.00 | 0.08 | 0.08 | 44 | 1037.8 |
| 20260505213416 | 22 | 213 | 3.2 | 9.7 | 0.00 | 0.08 | 0.08 | 44 | 1037.9 |
| 20260505212912 | 22 | 224 | 9.7 | 11.3 | 0.00 | 0.08 | 0.08 | 43 | 1037.8 |
| 20260505212409 | 23 | 193 | 8.0 | 11.3 | 0.00 | 0.08 | 0.08 | 42 | 1038.0 |
| 20260505211905 | 22 | 185 | 9.7 | 14.5 | 0.00 | 0.08 | 0.08 | 42 | 1038.0 |
| 20260505211403 | 23 | 199 | 8.0 | 16.1 | 0.00 | 0.08 | 0.08 | 42 | 1038.0 |
| 20260505210859 | 23 | 233 | 14.5 | 17.7 | 0.00 | 0.08 | 0.08 | 40 | 1037.7 |
| 20260505210356 | 23 | 191 | 11.3 | 25.7 | 0.00 | 0.08 | 0.08 | 40 | 1038.0 |
| 20260505205853 | 23 | 224 | 17.7 | 27.4 | 0.00 | 0.08 | 0.08 | 40 | 1037.7 |
| 20260505205351 | 23 | 211 | 16.1 | 48.3 | 0.00 | 0.08 | 0.08 | 39 | 1037.5 |
| 20260505204848 | 25 | 242 | 6.4 | 22.5 | 0.00 | 0.08 | 0.08 | 34 | 1037.7 |
| 20260505204346 | 25 | 234 | 12.9 | 24.1 | 0.00 | 0.08 | 0.08 | 34 | 1037.1 |
| 20260505203843 | 25 | 245 | 14.5 | 22.5 | 0.00 | 0.08 | 0.08 | 34 | 1037.1 |
| 20260505203339 | 25 | 208 | 17.7 | 25.7 | 0.00 | 0.08 | 0.08 | 33 | 1037.2 |
| 20260505202836 | 25 | 244 | 14.5 | 30.6 | 0.00 | 0.08 | 0.08 | 33 | 1037.1 |
| 20260505202332 | 25 | 227 | 4.8 | 17.7 | 0.00 | 0.08 | 0.08 | 33 | 1037.1 |
| 20260505201829 | 25 | 237 | 14.5 | 17.7 | 0.00 | 0.08 | 0.08 | 32 | 1037.1 |
| 20260505201326 | 25 | 241 | 17.7 | 35.4 | 0.00 | 0.08 | 0.08 | 32 | 1036.8 |
| 20260505200824 | 25 | 251 | 14.5 | 30.6 | 0.00 | 0.08 | 0.08 | 32 | 1037.0 |
| 20260505200321 | 25 | 189 | 22.5 | 27.4 | 0.00 | 0.08 | 0.08 | 31 | 1037.1 |
| 20260505195816 | 25 | 216 | 19.3 | 35.4 | 0.00 | 0.08 | 0.08 | 31 | 1037.0 |
| 20260505195314 | 25 | 245 | 11.3 | 37.0 | 0.00 | 0.08 | 0.08 | 32 | 1037.0 |
| 20260505194811 | 25 | 248 | 29.0 | 33.8 | 0.00 | 0.08 | 0.08 | 32 | 1037.2 |
| 20260505194308 | 26 | 264 | 8.0 | 24.1 | 0.00 | 0.08 | 0.08 | 31 | 1037.0 |
| 20260505193803 | 26 | 212 | 12.9 | 37.0 | 0.00 | 0.08 | 0.08 | 29 | 1036.9 |
| 20260505193301 | 26 | 226 | 19.3 | 38.6 | 0.00 | 0.08 | 0.08 | 31 | 1037.2 |
| 20260505192759 | 26 | 220 | 22.5 | 27.4 | 0.00 | 0.08 | 0.08 | 31 | 1037.1 |
| 20260505192257 | 25 | 249 | 20.9 | 27.4 | 0.00 | 0.08 | 0.08 | 32 | 1037.2 |
| 20260505191754 | 25 | 236 | 11.3 | 25.7 | 0.00 | 0.08 | 0.08 | 32 | 1037.3 |
| 20260505191253 | 25 | 225 | 22.5 | 30.6 | 0.00 | 0.08 | 0.08 | 31 | 1037.3 |
| 20260505190749 | 25 | 217 | 19.3 | 33.8 | 0.00 | 0.08 | 0.08 | 30 | 1037.5 |
| 20260505190244 | 25 | 214 | 22.5 | 33.8 | 0.00 | 0.08 | 0.08 | 30 | 1037.7 |
| 20260505185740 | 25 | 221 | 9.7 | 27.4 | 0.00 | 0.08 | 0.08 | 32 | 1037.8 |
| 20260505185237 | 25 | 225 | 24.1 | 35.4 | 0.00 | 0.08 | 0.08 | 31 | 1037.9 |
| 20260505184733 | 25 | 238 | 25.7 | 56.3 | 0.00 | 0.08 | 0.08 | 32 | 1038.1 |
| 20260505184231 | 25 | 209 | 22.5 | 43.5 | 0.00 | 0.08 | 0.08 | 31 | 1037.9 |
| 20260505183727 | 26 | 211 | 17.7 | 24.1 | 0.00 | 0.08 | 0.08 | 32 | 1038.1 |
| 20260505183224 | 25 | 219 | 17.7 | 35.4 | 0.00 | 0.08 | 0.08 | 34 | 1038.0 |
| 20260505182720 | 25 | 262 | 25.7 | 40.2 | 0.00 | 0.08 | 0.08 | 33 | 1038.4 |
| 20260505182218 | 25 | 248 | 22.5 | 35.4 | 0.00 | 0.08 | 0.08 | 34 | 1038.1 |
| 20260505181714 | 25 | 196 | 30.6 | 49.9 | 0.00 | 0.08 | 0.08 | 32 | 1038.4 |
| 20260505181212 | 25 | 248 | 17.7 | 33.8 | 0.00 | 0.08 | 0.08 | 33 | 1038.5 |
| 20260505180708 | 25 | 206 | 17.7 | 30.6 | 0.00 | 0.08 | 0.08 | 33 | 1038.6 |
| 20260505180205 | 25 | 190 | 9.7 | 29.0 | 0.00 | 0.08 | 0.08 | 36 | 1038.3 |
| 20260505175701 | 25 | 207 | 24.1 | 35.4 | 0.00 | 0.08 | 0.08 | 36 | 1038.6 |
| 20260505175157 | 25 | 203 | 20.9 | 30.6 | 0.00 | 0.08 | 0.08 | 36 | 1039.0 |
| 20260505174654 | 25 | 244 | 27.4 | 33.8 | 0.00 | 0.08 | 0.08 | 35 | 1038.8 |
| 20260505174150 | 25 | 204 | 25.7 | 38.6 | 0.00 | 0.08 | 0.08 | 35 | 1038.7 |
| 20260505173647 | 25 | 214 | 20.9 | 41.8 | 0.00 | 0.08 | 0.08 | 34 | 1038.8 |
| 20260505173144 | 25 | 216 | 17.7 | 37.0 | 0.00 | 0.08 | 0.08 | 35 | 1038.8 |
| 20260505172641 | 25 | 266 | 19.3 | 33.8 | 0.00 | 0.08 | 0.08 | 35 | 1038.4 |
| 20260505172138 | 25 | 241 | 6.4 | 22.5 | 0.00 | 0.08 | 0.08 | 39 | 1038.5 |
| 20260505171637 | 25 | 291 | 11.3 | 35.4 | 0.00 | 0.08 | 0.08 | 38 | 1038.7 |
| 20260505171135 | 25 | 225 | 11.3 | 37.0 | 0.00 | 0.08 | 0.08 | 38 | 1038.6 |
| 20260505170632 | 25 | 199 | 14.5 | 29.0 | 0.00 | 0.08 | 0.08 | 39 | 1038.6 |
| 20260505170128 | 25 | 220 | 20.9 | 29.0 | 0.00 | 0.08 | 0.08 | 37 | 1038.6 |
| 20260505165624 | 25 | 214 | 14.5 | 25.7 | 0.00 | 0.08 | 0.08 | 38 | 1038.7 |
| 20260505165120 | 25 | 230 | 17.7 | 37.0 | 0.00 | 0.08 | 0.08 | 39 | 1038.9 |
| 20260505164615 | 25 | 242 | 19.3 | 38.6 | 0.00 | 0.08 | 0.08 | 38 | 1038.9 |
| 20260505164113 | 25 | 173 | 9.7 | 27.4 | 0.00 | 0.08 | 0.08 | 39 | 1039.2 |
| 20260505163612 | 24 | 243 | 22.5 | 27.4 | 0.00 | 0.08 | 0.08 | 39 | 1039.0 |
| 20260505163109 | 25 | 208 | 16.1 | 29.0 | 0.00 | 0.08 | 0.08 | 39 | 1039.1 |
| 20260505162606 | 25 | 167 | 9.7 | 17.7 | 0.00 | 0.08 | 0.08 | 40 | 1038.9 |
| 20260505162104 | 24 | 215 | 9.7 | 25.7 | 0.00 | 0.08 | 0.08 | 41 | 1039.2 |
| 20260505161600 | 24 | 232 | 17.7 | 30.6 | 0.00 | 0.08 | 0.08 | 41 | 1039.1 |
| 20260505161058 | 24 | 232 | 12.9 | 30.6 | 0.00 | 0.08 | 0.08 | 41 | 1039.4 |
| 20260505160555 | 24 | 180 | 17.7 | 30.6 | 0.00 | 0.08 | 0.08 | 41 | 1039.4 |
| 20260505153032 | 23 | 249 | 11.3 | 24.1 | 0.00 | 0.08 | 0.08 | 43 | 1039.6 |
| 20260505152529 | 23 | 251 | 14.5 | 27.4 | 0.00 | 0.08 | 0.08 | 43 | 1039.7 |
| 20260505152024 | 23 | 251 | 14.5 | 27.4 | 0.00 | 0.08 | 0.08 | 44 | 1039.9 |
| 20260505151520 | 22 | 232 | 14.5 | 24.1 | 0.00 | 0.08 | 0.08 | 45 | 1039.8 |
| 20260505151018 | 22 | 241 | 17.7 | 25.7 | 0.00 | 0.08 | 0.08 | 44 | 1039.9 |
| 20260505150514 | 22 | 238 | 17.7 | 29.0 | 0.00 | 0.08 | 0.08 | 45 | 1039.8 |
| 20260505140439 | 21 | 223 | 8.0 | 24.1 | 0.00 | 0.08 | 0.08 | 49 | 1040.1 |